User: anonymous   Login
Location: Unspecified
(0.0000°N, 0.0000°E)
Time: 12:25:10
(UTC+01:00)
Language:

Cosmos 2263 Rocket - Orbit

View from above orbital plane
View from above orbital plane
View from above satellite
View from above satellite

Ground track
Ground track

The orbit data is extracted from the following two-line orbital elements,

1 22803U 93059B   17328.84916329 -.00000199  00000-0 -75246-4 0  9993
2 22803  70.9908 270.8813 0015817 147.9835 212.2252 14.16785623251038
Epoch (UTC): 24 November 2017 20:22:47
Eccentricity: 0.0015817
inclination: 70.9908°
perigee height: 825 km
apogee height: 847 km
right ascension of ascending node: 270.8813°
argument of perigee: 147.9835°
revolutions per day: 14.16785623
mean anomaly at epoch: 212.2252°
orbit number at epoch: 25103

The dashed part of the orbit path shows where the satellite is in the earth's shadow,  

DLR